Terug naar catalogus

STARLINK-3459

ActiefCommunicatieVLEO
NORAD 51757·PAYLOAD·🇺🇸 United States

Gelanceerd Feb 21, 2022 vanaf Cape Canaveral Space Force Station

Loading…

Volgende Passages (komende 24 uur)

TLE

VersSource: CelesTrak SupGP

Epoch: Sep 15, 2026, 01:18 UTC

1 51757C 22016AV  26258.05465278  .00002082  00000+0  61538-4 0  2582
2 51757  53.1577 164.8344 0001287  84.7223 113.0078 15.34381781    11

Volg STARLINK-3459 in realtime met AllMySat

Download on the App Store